WZ9ZZZ-1 Weather Reports


time (UTC)temp
F
wind
direction
speed
knots
gust
knots
rain 1hr
in
rain 24hr
in
rain mn
in
humidity
%
barometer
mb
20260510043417 76 148 1.7 1.7 0.00 0.12 0.12 96 1015.9
20260510042915 75 80 1.7 1.7 0.00 0.12 0.12 96 1015.8
20260510042410 76 83 1.7 1.7 0.00 0.12 0.12 96 1015.9
20260510041906 76 103 1.7 1.7 0.00 0.12 0.12 96 1016.1
20260510041403 76 105 0.9 1.7 0.00 0.12 0.12 96 1016.1
20260510040901 76 184 2.6 4.3 0.00 0.12 0.12 96 1016.2
20260510040358 76 175 2.6 4.3 0.00 0.12 0.12 96 1016.1
20260510035854 76 127 1.7 1.7 0.00 0.12 0.12 96 1016.0
20260510035349 76 61 1.7 4.3 0.00 0.12 0.12 96 1015.8
20260510034845 76 88 2.6 4.3 0.00 0.12 0.12 96 1016.1
20260510034343 76 125 0.0 0.0 0.00 0.12 0.12 96 1015.9
20260510033839 76 124 0.0 0.0 0.00 0.12 0.12 96 1015.3
20260510033336 76 114 0.0 0.0 0.00 0.12 0.12 96 1015.2
20260510032832 76 118 0.0 0.0 0.00 0.12 0.12 96 1015.4
20260510032330 76 124 0.0 0.0 0.00 0.12 0.12 96 1015.4
20260510031825 76 126 0.0 0.0 0.00 0.12 0.12 96 1015.4
20260510031321 76 113 0.0 0.0 0.00 0.12 0.12 95 1015.5
20260510030821 76 85 0.0 0.9 0.05 0.12 0.12 95 1015.7
20260510030317 77 98 4.3 5.2 0.12 0.12 0.12 95 1015.9
20260510025815 77 125 1.7 1.7 0.42 0.12 0.12 95 1015.8
20260510025312 77 111 1.7 2.6 0.59 0.10 0.10 95 1015.5
20260510024809 78 115 2.6 2.6 0.24 0.04 0.04 94 1015.4
20260510024306 78 156 1.7 1.7 0.05 0.01 0.01 93 1015.4
20260510023802 78 150 2.6 2.6 0.00 0.00 0.00 93 1015.4
20260510023259 78 122 3.5 4.3 0.00 0.00 0.00 93 1015.2
20260510022755 78 116 0.9 0.9 0.00 0.00 0.00 93 1015.5
20260510022250 78 115 0.9 0.9 0.00 0.00 0.00 93 1015.2
20260510021748 78 104 0.9 0.9 0.00 0.00 0.00 92 1015.0
20260510021247 78 116 1.7 1.7 0.00 0.00 0.00 92 1014.7
20260510020742 78 116 1.7 2.6 0.00 0.00 0.00 92 1014.6
20260510020237 78 127 0.9 0.9 0.00 0.00 0.00 92 1014.5
20260510015733 78 118 0.0 0.0 0.00 0.00 0.00 91 1014.3
20260510015230 78 126 1.7 2.6 0.00 0.00 0.00 91 1014.1
20260510014724 79 124 1.7 1.7 0.00 0.00 0.00 90 1014.0
20260510014222 79 121 0.9 1.7 0.00 0.00 0.00 89 1013.8
20260510013717 80 122 0.9 0.9 0.00 0.00 0.00 88 1014.1
20260510013208 80 101 1.7 1.7 0.00 0.00 0.00 87 1013.7
20260510012708 79 133 2.6 2.6 0.00 0.00 0.00 85 1013.7
20260510012203 80 143 0.9 0.9 0.00 0.00 0.00 85 1013.5
20260510011658 80 110 0.0 0.9 0.00 0.00 0.00 85 1013.0
20260510011154 80 126 0.9 0.9 0.00 0.00 0.00 84 1013.1
20260510010650 80 117 0.0 0.9 0.00 0.00 0.00 84 1013.0
20260510010148 80 123 0.9 0.9 0.00 0.00 0.00 84 1012.6
20260510005643 80 148 1.7 2.6 0.00 0.00 0.00 83 1013.0
20260510005140 81 116 1.7 1.7 0.00 0.00 0.00 82 1012.7
20260510004639 81 132 0.9 0.9 0.00 0.00 0.00 82 1012.7
20260510004137 81 137 0.9 0.9 0.00 0.00 0.00 82 1012.5
20260510003633 81 137 0.0 0.0 0.00 0.00 0.00 81 1012.3
20260510003129 81 173 0.9 1.7 0.00 0.00 0.00 81 1012.9
20260510002629 82 143 0.0 0.9 0.00 0.00 0.00 81 1012.5
20260510002127 82 120 0.0 0.9 0.00 0.00 0.00 81 1012.6
20260510001623 83 114 0.0 0.9 0.00 0.00 0.00 81 1012.5
20260510001122 83 161 0.9 0.9 0.00 0.00 0.00 79 1012.7
20260510000622 83 121 0.0 0.0 0.00 0.00 0.00 77 1012.1
20260510000120 83 119 0.0 0.9 0.00 0.00 0.00 77 1012.4
20260509235616 83 114 0.0 0.9 0.00 0.00 0.00 75 1012.0
20260509235113 83 120 1.7 1.7 0.00 0.00 0.00 75 1012.1
20260509234608 84 118 0.0 0.0 0.00 0.00 0.00 75 1012.2
20260509234107 84 104 0.9 0.9 0.00 0.00 0.00 74 1012.5
20260509233604 85 118 0.9 0.9 0.00 0.00 0.00 73 1012.2
20260509233101 85 141 0.9 0.9 0.00 0.00 0.00 73 1012.2
20260509232557 86 129 1.7 1.7 0.00 0.00 0.00 73 1012.2
20260509232054 86 128 0.9 0.9 0.00 0.00 0.00 73 1012.3
20260509231551 86 110 0.0 0.9 0.00 0.00 0.00 73 1012.6
20260509231049 86 126 1.7 1.7 0.00 0.00 0.00 73 1012.4
20260509230545 86 129 0.0 0.0 0.00 0.00 0.00 73 1012.2
20260509230043 87 88 1.7 1.7 0.00 0.00 0.00 71 1012.0
20260509225538 87 137 0.0 0.9 0.00 0.00 0.00 71 1012.2
20260509225033 87 103 0.9 1.7 0.00 0.00 0.00 71 1012.2
20260509224529 87 102 0.0 0.0 0.00 0.00 0.00 71 1012.0
20260509224026 87 110 0.0 0.0 0.00 0.00 0.00 72 1012.0
20260509223523 88 112 0.9 0.9 0.00 0.00 0.00 71 1011.9
20260509223021 87 108 0.0 0.0 0.00 0.00 0.00 72 1012.0
20260509222517 89 231 0.0 0.9 0.00 0.00 0.00 71 1012.0
20260509222012 89 121 0.0 0.0 0.00 0.00 0.00 71 1011.9
20260509221509 87 121 0.0 0.0 0.00 0.00 0.00 71 1012.1
20260509221004 87 121 0.9 1.7 0.00 0.00 0.00 72 1011.9
20260509220501 88 122 0.9 0.9 0.00 0.00 0.00 72 1011.8
20260509215956 88 122 0.9 1.7 0.00 0.00 0.00 72 1011.9
20260509215452 88 121 0.9 0.9 0.00 0.00 0.00 72 1011.9
20260509214950 88 101 0.0 0.0 0.00 0.00 0.00 72 1011.7
20260509214447 87 134 1.7 1.7 0.00 0.00 0.00 74 1011.7
20260509213943 88 106 0.9 0.9 0.00 0.00 0.00 73 1011.7
20260509213439 88 118 0.0 0.0 0.00 0.00 0.00 74 1011.6
20260509212937 88 115 0.0 0.0 0.00 0.00 0.00 73 1011.7
20260509212434 88 127 0.0 0.0 0.00 0.00 0.00 72 1011.7
20260509211930 88 140 0.9 0.9 0.00 0.00 0.00 73 1011.7
20260509211426 88 109 0.0 0.0 0.00 0.00 0.00 74 1011.9
20260509210923 88 117 0.0 0.9 0.00 0.00 0.00 75 1011.9
20260509210420 88 96 0.9 1.7 0.00 0.00 0.00 73 1012.1
20260509205916 89 132 0.9 1.7 0.00 0.00 0.00 72 1012.0
20260509205415 89 125 0.0 0.0 0.00 0.00 0.00 73 1012.1
20260509204912 89 99 0.0 0.9 0.00 0.00 0.00 72 1011.7
20260509204408 89 102 2.6 2.6 0.00 0.00 0.00 72 1012.0
20260509203904 90 122 1.7 2.6 0.00 0.00 0.00 71 1011.8
20260509203400 89 80 2.6 2.6 0.00 0.00 0.00 72 1011.9
20260509202858 88 104 0.0 0.0 0.00 0.00 0.00 74 1012.1
20260509202354 89 112 0.0 0.9 0.00 0.00 0.00 75 1011.9
20260509201849 88 116 0.0 0.9 0.00 0.00 0.00 76 1012.1
20260509201345 89 121 2.6 4.3 0.00 0.00 0.00 74 1012.2
20260509200842 88 99 0.0 0.9 0.00 0.00 0.00 73 1012.3
20260509200336 87 132 0.0 0.0 0.00 0.00 0.00 75 1012.4
20260509195834 87 106 0.9 1.7 0.00 0.00 0.00 77 1012.5
20260509195334 87 99 1.7 1.7 0.00 0.00 0.00 76 1012.3
20260509194833 88 86 0.9 0.9 0.00 0.00 0.00 74 1012.4
20260509194330 86 117 0.9 0.9 0.00 0.00 0.00 76 1012.7
20260509193826 86 83 0.9 0.9 0.00 0.00 0.00 77 1012.4
20260509193321 87 105 2.6 4.3 0.00 0.00 0.00 77 1012.6
20260509192817 87 115 0.0 0.9 0.00 0.00 0.00 78 1012.6
20260509192313 87 118 0.9 0.9 0.00 0.00 0.00 77 1012.7
20260509191808 87 118 0.9 0.9 0.00 0.00 0.00 77 1012.6
20260509191305 87 123 0.0 0.0 0.00 0.00 0.00 78 1012.7
20260509190801 87 138 0.9 0.9 0.00 0.00 0.00 76 1012.7
20260509190258 88 103 2.6 2.6 0.00 0.00 0.00 75 1012.6
20260509185755 90 133 1.7 1.7 0.00 0.00 0.00 72 1012.7
20260509185251 90 267 0.9 0.9 0.00 0.00 0.00 69 1012.7
20260509184749 90 122 0.0 0.9 0.00 0.00 0.00 69 1012.7
20260509184246 90 82 0.0 0.0 0.00 0.00 0.00 69 1012.6
20260509183743 87 265 0.9 0.9 0.00 0.00 0.00 70 1013.0
20260509183238 88 184 1.7 1.7 0.00 0.00 0.00 70 1012.9
20260509182733 86 262 0.9 1.7 0.00 0.00 0.00 73 1013.2
20260509182231 86 68 1.7 1.7 0.00 0.00 0.00 73 1013.2
20260509181728 85 212 0.9 1.7 0.00 0.00 0.00 75 1013.1
20260509181226 85 218 2.6 2.6 0.00 0.00 0.00 75 1013.4
20260509180723 85 174 1.7 2.6 0.00 0.00 0.00 76 1013.4
20260509180219 85 181 0.0 0.9 0.00 0.00 0.00 77 1013.5
20260509175716 84 133 0.0 0.0 0.00 0.00 0.00 78 1014.0
20260509175212 83 224 1.7 2.6 0.00 0.00 0.00 80 1013.9
20260509174708 82 37 2.6 2.6 0.00 0.00 0.00 83 1013.9
20260509174203 82 129 0.0 0.0 0.00 0.00 0.00 84 1014.0
20260509173700 82 113 0.9 0.9 0.00 0.00 0.00 85 1014.1
20260509173155 82 115 0.0 0.0 0.00 0.00 0.00 85 1014.4
20260509172651 82 114 0.0 0.0 0.00 0.00 0.00 86 1014.1
20260509172148 82 99 0.9 0.9 0.00 0.00 0.00 85 1014.0
20260509171643 82 104 0.0 0.0 0.00 0.00 0.00 85 1014.2
20260509171140 82 99 0.0 0.9 0.00 0.00 0.00 86 1014.2
20260509170637 82 133 0.0 0.0 0.00 0.00 0.00 85 1014.2
20260509170133 82 133 0.0 0.0 0.00 0.00 0.00 86 1014.2
20260509165631 82 133 0.0 0.0 0.00 0.00 0.00 86 1014.1
20260509165127 82 128 0.0 0.9 0.00 0.00 0.00 86 1014.1
20260509164623 82 129 0.0 0.0 0.00 0.00 0.00 85 1014.5
20260509164119 82 129 0.0 0.9 0.00 0.00 0.00 85 1014.4
20260509163617 82 130 0.0 0.0 0.00 0.00 0.00 84 1014.4
20260509163112 82 152 0.9 0.9 0.00 0.00 0.00 84 1014.0
20260509162610 82 96 0.0 0.0 0.00 0.00 0.00 85 1014.1
20260509162106 82 96 0.0 0.0 0.00 0.00 0.00 86 1014.0
20260509161603 81 96 0.0 0.0 0.00 0.00 0.00 88 1014.0
20260509161102 80 95 0.0 0.0 0.00 0.00 0.00 89 1013.9
20260509160559 80 101 0.0 0.0 0.00 0.00 0.00 90 1013.8
20260509160054 80 108 0.0 0.0 0.00 0.00 0.00 92 1014.1
20260509155551 79 103 0.9 0.9 0.00 0.00 0.00 93 1014.3
20260509155047 79 102 0.0 0.0 0.00 0.00 0.00 93 1014.1
20260509154543 78 99 0.0 0.0 0.00 0.00 0.00 94 1013.9
20260509154041 78 107 0.0 0.0 0.00 0.00 0.00 94 1013.8
20260509153538 78 112 0.0 0.0 0.00 0.00 0.00 95 1013.4
20260509153034 78 105 0.9 0.9 0.00 0.00 0.00 95 1013.9
20260509152530 77 124 0.0 0.0 0.00 0.00 0.00 96 1013.8
20260509152027 77 125 0.0 0.0 0.00 0.00 0.00 96 1013.7
20260509151523 77 112 0.0 0.0 0.00 0.00 0.00 96 1013.4
20260509151022 77 107 0.9 0.9 0.00 0.00 0.00 96 1013.3
20260509150519 76 123 0.0 0.0 0.00 0.00 0.00 96 1013.9
20260509150017 76 134 0.0 0.0 0.00 0.00 0.00 97 1013.9
20260509145512 76 124 0.0 0.0 0.00 0.00 0.00 97 1013.6
20260509145008 76 121 0.0 0.0 0.00 0.00 0.00 97 1013.7
20260509144505 76 121 0.0 0.0 0.00 0.00 0.00 97 1013.7
20260509144002 76 131 0.0 0.9 0.00 0.00 0.00 97 1014.0
20260509143459 76 140 0.0 0.0 0.00 0.00 0.00 97 1014.2
20260509142956 76 165 0.0 0.0 0.00 0.00 0.00 97 1014.1
20260509142452 76 130 0.0 0.0 0.00 0.00 0.00 98 1014.1
20260509141948 76 247 2.6 4.3 0.00 0.00 0.00 97 1014.2
20260509141444 76 190 0.9 1.7 0.00 0.00 0.00 98 1014.0
20260509140941 76 126 0.0 0.0 0.00 0.00 0.00 98 1013.8
20260509140437 76 111 0.0 0.0 0.00 0.00 0.00 98 1013.9
20260509135936 76 109 0.0 0.0 0.00 0.00 0.00 98 1013.9
20260509135433 76 101 0.0 0.0 0.00 0.00 0.00 98 1013.8
20260509134930 76 104 0.0 0.0 0.00 0.00 0.00 98 1013.3
20260509134428 76 107 0.0 0.0 0.00 0.00 0.00 98 1013.6
20260509133925 76 110 0.0 0.0 0.00 0.00 0.00 98 1013.5
20260509133421 76 105 0.0 0.0 0.00 0.00 0.00 98 1014.0
20260509132920 75 86 0.0 0.0 0.00 0.00 0.00 98 1013.9
20260509132418 76 103 0.0 0.0 0.00 0.00 0.00 98 1014.5
20260509131914 75 91 0.0 0.0 0.00 0.00 0.00 98 1014.1
20260509131412 75 86 0.0 0.0 0.00 0.00 0.00 98 1013.9
20260509130908 75 104 0.0 0.0 0.00 0.00 0.00 98 1013.9
20260509130403 75 109 0.0 0.0 0.00 0.00 0.00 98 1013.6
20260509125901 75 187 0.0 0.0 0.00 0.00 0.00 98 1013.8
20260509125357 75 114 0.0 0.0 0.00 0.00 0.00 98 1013.6
20260509124853 75 161 0.0 0.0 0.00 0.00 0.00 98 1013.7
20260509124350 75 120 0.0 0.0 0.00 0.00 0.00 98 1013.9
20260509123848 74 137 0.0 0.0 0.00 0.00 0.00 98 1013.6
20260509123345 74 101 0.0 0.0 0.00 0.00 0.00 98 1013.9
20260509122841 74 111 0.0 0.0 0.00 0.00 0.00 98 1013.8
20260509122338 74 120 0.0 0.0 0.00 0.00 0.00 98 1013.6
20260509121835 74 120 0.0 0.0 0.00 0.00 0.00 98 1013.6
20260509121332 74 120 0.0 0.0 0.00 0.00 0.00 98 1013.5
20260509120830 74 113 0.0 0.0 0.00 0.00 0.00 98 1013.6
20260509120327 74 108 0.0 0.0 0.00 0.00 0.00 98 1013.9
20260509115826 74 107 0.0 0.0 0.00 0.00 0.00 98 1013.7
20260509115322 74 105 0.0 0.0 0.00 0.00 0.00 98 1013.8
20260509114820 74 105 0.0 0.0 0.00 0.00 0.00 98 1014.0
20260509114319 74 106 0.0 0.0 0.00 0.00 0.00 98 1013.9
20260509113818 74 105 0.0 0.0 0.00 0.00 0.00 98 1013.8
20260509113314 74 107 0.0 0.0 0.00 0.00 0.00 98 1013.7
20260509112811 74 105 0.0 0.0 0.00 0.00 0.00 98 1013.9
20260509112308 74 105 0.0 0.0 0.00 0.00 0.00 98 1013.8
20260509111805 74 105 0.0 0.0 0.00 0.00 0.00 98 1013.8
20260509111302 74 105 0.0 0.0 0.00 0.00 0.00 98 1013.6
20260509110759 74 105 0.0 0.0 0.00 0.00 0.00 98 1013.5
20260509110255 74 106 0.0 0.0 0.00 0.00 0.00 98 1013.4
20260509105754 73 106 0.0 0.0 0.00 0.00 0.00 98 1013.1
20260509105251 73 106 0.0 0.0 0.00 0.00 0.00 98 1013.1
20260509104748 73 106 0.0 0.0 0.00 0.00 0.00 98 1013.0
20260509104245 73 106 0.0 0.0 0.00 0.00 0.00 98 1012.9
20260509103743 73 106 0.0 0.0 0.00 0.00 0.00 98 1013.2
20260509103240 73 105 0.0 0.0 0.00 0.00 0.00 98 1013.2
20260509102738 73 105 0.0 0.0 0.00 0.00 0.00 98 1013.3
20260509102235 73 108 0.0 0.0 0.00 0.00 0.00 98 1013.0
20260509101731 73 107 0.0 0.0 0.00 0.00 0.00 98 1013.0
20260509101227 73 108 0.0 0.0 0.00 0.00 0.00 97 1013.3
20260509100725 74 108 0.0 0.0 0.00 0.00 0.00 98 1013.1
20260509100222 74 108 0.0 0.0 0.00 0.00 0.00 98 1013.2
20260509095719 74 108 0.0 0.0 0.00 0.00 0.00 98 1013.2
20260509095216 74 108 0.0 0.0 0.00 0.00 0.00 98 1013.0
20260509094713 74 109 0.0 0.0 0.00 0.00 0.00 98 1013.0
20260509094210 74 109 0.0 0.0 0.00 0.00 0.00 98 1013.0
20260509093708 74 106 0.0 0.0 0.00 0.00 0.00 97 1012.9
20260509093205 74 105 0.0 0.0 0.00 0.00 0.00 97 1013.0
20260509092703 74 106 0.0 0.0 0.00 0.00 0.00 97 1012.6
20260509092201 74 102 0.0 0.0 0.00 0.00 0.00 97 1012.7
20260509091659 73 94 0.0 0.0 0.00 0.00 0.00 97 1012.5
20260509091154 74 105 0.0 0.0 0.00 0.00 0.00 97 1012.6
20260509090652 74 105 0.0 0.0 0.00 0.00 0.00 97 1012.5
20260509090149 73 109 0.0 0.0 0.00 0.00 0.00 97 1012.7
20260509085647 73 99 0.0 0.0 0.00 0.00 0.00 97 1012.6
20260509085143 73 106 0.0 0.0 0.00 0.00 0.00 97 1012.7
20260509084640 73 106 0.0 0.0 0.00 0.00 0.00 97 1012.5
20260509084137 73 106 0.0 0.0 0.00 0.00 0.00 97 1012.5
20260509083635 73 105 0.0 0.0 0.00 0.00 0.00 97 1013.0
20260509083131 74 103 0.0 0.0 0.00 0.00 0.00 97 1012.9
20260509082628 74 106 0.0 0.0 0.00 0.00 0.00 97 1012.6
20260509082125 74 106 0.0 0.0 0.00 0.00 0.00 97 1012.7
20260509081622 73 106 0.0 0.0 0.00 0.00 0.00 97 1012.7
20260509081119 73 106 0.0 0.0 0.00 0.00 0.00 97 1013.1
20260509080617 73 105 0.0 0.0 0.00 0.00 0.00 97 1013.0
20260509080115 73 106 0.0 0.0 0.00 0.00 0.00 97 1013.1
20260509075613 73 106 0.0 0.0 0.00 0.00 0.00 97 1013.2
20260509075110 73 106 0.0 0.0 0.00 0.00 0.00 97 1013.4
20260509074607 73 106 0.0 0.0 0.00 0.00 0.00 97 1013.3
20260509074103 73 106 0.0 0.0 0.00 0.00 0.00 97 1013.3
20260509073600 73 106 0.0 0.0 0.00 0.00 0.00 97 1013.3
20260509073056 73 106 0.0 0.0 0.00 0.00 0.00 97 1013.4
20260509072553 73 112 0.0 0.0 0.00 0.00 0.00 97 1013.5
20260509072050 73 106 0.0 0.0 0.00 0.00 0.00 97 1013.3
20260509071547 73 106 0.0 0.0 0.00 0.00 0.00 97 1013.5
20260509071044 73 106 0.0 0.0 0.00 0.00 0.00 97 1013.3
20260509070541 73 106 0.0 0.0 0.00 0.00 0.00 97 1013.6
20260509070038 74 106 0.0 0.0 0.00 0.00 0.00 97 1013.4
20260509065533 74 106 0.0 0.0 0.00 0.00 0.00 97 1013.3
20260509065030 74 103 0.0 0.0 0.00 0.00 0.00 97 1013.3
20260509064527 74 105 0.0 0.0 0.00 0.00 0.00 97 1013.1
20260509064025 74 106 0.0 0.0 0.00 0.00 0.00 97 1013.3
20260509063520 74 106 0.0 0.0 0.00 0.00 0.00 97 1013.5
20260509063018 74 106 0.0 0.0 0.00 0.00 0.00 97 1013.6
20260509062515 74 106 0.0 0.0 0.00 0.00 0.00 97 1013.8
20260509062012 74 104 0.0 0.0 0.00 0.00 0.00 97 1013.9
20260509061509 75 106 0.0 0.0 0.00 0.00 0.00 97 1013.7
20260509061007 75 106 0.0 0.0 0.00 0.00 0.00 97 1013.4
20260509060504 75 106 0.0 0.0 0.00 0.00 0.00 97 1013.4
20260509055959 75 106 0.0 0.0 0.00 0.00 0.00 97 1013.5
20260509055455 75 105 0.0 0.0 0.00 0.00 0.00 97 1013.7
20260509054951 75 100 0.0 0.0 0.00 0.00 0.00 97 1013.5
20260509054448 75 108 0.0 0.0 0.00 0.00 0.00 96 1013.5
20260509053946 75 104 0.0 0.0 0.00 0.00 0.00 96 1013.4
20260509053444 75 109 0.0 0.0 0.00 0.00 0.00 96 1013.7
20260509052941 75 109 0.0 0.0 0.00 0.00 0.00 96 1013.9
20260509052439 75 109 0.0 0.0 0.00 0.00 0.00 96 1013.6
20260509051936 75 111 0.0 0.0 0.00 0.00 0.00 96 1013.8
20260509051434 75 112 0.0 0.0 0.00 0.00 0.00 96 1013.7
20260509050931 75 120 0.0 0.0 0.00 0.00 0.00 96 1013.6
20260509050427 75 120 0.0 0.0 0.00 0.00 0.00 96 1013.6
20260509045924 75 120 0.0 0.0 0.00 0.02 0.02 96 1014.0
20260509045421 75 120 0.0 0.0 0.00 0.02 0.02 96 1014.1
20260509044918 75 120 0.0 0.0 0.00 0.02 0.02 96 1013.9
20260509044416 75 120 0.0 0.0 0.00 0.02 0.02 96 1014.2
20260509043913 75 119 0.0 0.0 0.00 0.02 0.02 96 1014.2